CFG45J EIKN-EDDF

Flight info

Callsign CFG45J
Flight time 1h 50m
Altitude 37000
Route WOWEC DCT RINUS DCT LANON DCT SAWPE Q63 CPT UL9 BIG L607 KONAN UL607 SPI T180 NIVNU DCT IMCOM IMCOM1B
Aircraft A320/M-SDE3FGHIRWY/LB1

Departure

Time 2026-05-07 11:34
Airport Ireland West Airport Knock (EIKN)

Arrival

Time 2026-05-07 13:25
Airport Frankfurt Main Airport (EDDF)
Time Latitude Longitude Altitude Speed Heading
2026-05-07 10:53 53.91402 -8.81025 643 ft 0 kts 258°
2026-05-07 11:25 53.91402 -8.81024 642 ft 1 kts 258°
2026-05-07 11:25 53.91407 -8.80982 642 ft 4 kts 261°
2026-05-07 11:26 53.91411 -8.80937 642 ft 4 kts 261°
2026-05-07 11:26 53.91413 -8.80917 642 ft 4 kts 251°
2026-05-07 11:26 53.91392 -8.80929 643 ft 4 kts 187°
2026-05-07 11:26 53.91366 -8.80926 642 ft 4 kts 173°
2026-05-07 11:27 53.91339 -8.80919 642 ft 4 kts 169°
2026-05-07 11:27 53.91313 -8.80910 642 ft 4 kts 169°
2026-05-07 11:27 53.91286 -8.80902 642 ft 4 kts 169°
2026-05-07 11:27 53.91276 -8.80899 642 ft 0 kts 169°
2026-05-07 11:30 53.91273 -8.80898 642 ft 2 kts 169°
2026-05-07 11:30 53.91235 -8.80885 643 ft 6 kts 169°
2026-05-07 11:30 53.91179 -8.80866 645 ft 10 kts 162°
2026-05-07 11:31 53.91160 -8.80737 647 ft 15 kts 79°
2026-05-07 11:31 53.91184 -8.80532 644 ft 20 kts 79°
2026-05-07 11:31 53.91211 -8.80309 644 ft 19 kts 79°
2026-05-07 11:31 53.91237 -8.80136 642 ft 15 kts 56°
2026-05-07 11:32 53.91261 -8.79987 644 ft 8 kts 190°
2026-05-07 11:32 53.91240 -8.80056 642 ft 0 kts 259°
2026-05-07 11:33 53.91223 -8.80201 642 ft 43 kts 258°
2026-05-07 11:34 53.91115 -8.81100 644 ft 109 kts 259°
2026-05-07 11:34 53.90935 -8.82658 752 ft 148 kts 254°
2026-05-07 11:34 53.90754 -8.84323 1445 ft 144 kts 255°
2026-05-07 11:34 53.90553 -8.86019 2047 ft 153 kts 254°
2026-05-07 11:35 53.90319 -8.87913 2362 ft 175 kts 255°
2026-05-07 11:35 53.90052 -8.90068 2664 ft 199 kts 255°
2026-05-07 11:35 53.89752 -8.92523 2914 ft 228 kts 256°
2026-05-07 11:35 53.89427 -8.95247 3623 ft 239 kts 257°
2026-05-07 11:36 53.89103 -8.98021 4596 ft 240 kts 256°
2026-05-07 11:36 53.88417 -9.00562 5513 ft 240 kts 226°
2026-05-07 11:36 53.86956 -9.01916 6374 ft 248 kts 191°
2026-05-07 11:36 53.85215 -9.01832 7212 ft 256 kts 173°
2026-05-07 11:37 53.83469 -9.01132 8098 ft 260 kts 168°
2026-05-07 11:37 53.81722 -9.00269 8996 ft 264 kts 167°
2026-05-07 11:37 53.79985 -8.99333 9860 ft 270 kts 159°
2026-05-07 11:37 53.78419 -8.97497 10630 ft 280 kts 138°
2026-05-07 11:38 53.77280 -8.94772 11421 ft 290 kts 117°
2026-05-07 11:38 53.76722 -8.91413 12200 ft 297 kts 103°
2026-05-07 11:38 53.76345 -8.87950 12840 ft 307 kts 103°
2026-05-07 11:38 53.75971 -8.84256 13065 ft 330 kts 102°
2026-05-07 11:39 53.75591 -8.80293 13234 ft 354 kts 102°
2026-05-07 11:39 53.75203 -8.76110 13373 ft 375 kts 101°
2026-05-07 11:39 53.74799 -8.71681 13803 ft 386 kts 101°
2026-05-07 11:39 53.74388 -8.67159 14390 ft 391 kts 101°
2026-05-07 11:40 53.73970 -8.62601 15013 ft 395 kts 101°
2026-05-07 11:40 53.73540 -8.58005 15642 ft 398 kts 101°
2026-05-07 11:40 53.73101 -8.53373 16273 ft 401 kts 101°
2026-05-07 11:40 53.72654 -8.48702 16888 ft 405 kts 102°
2026-05-07 11:41 53.72198 -8.43986 17503 ft 408 kts 102°
2026-05-07 11:41 53.71734 -8.39236 18119 ft 412 kts 102°
2026-05-07 11:41 53.71265 -8.34445 18646 ft 415 kts 102°
2026-05-07 11:41 53.70794 -8.29623 19173 ft 418 kts 102°
2026-05-07 11:42 53.70320 -8.24762 19685 ft 421 kts 102°
2026-05-07 11:42 53.69842 -8.19875 20192 ft 424 kts 102°
2026-05-07 11:42 53.69358 -8.14963 20693 ft 426 kts 102°
2026-05-07 11:42 53.68866 -8.10012 21189 ft 428 kts 102°
2026-05-07 11:43 53.68370 -8.05048 21670 ft 431 kts 102°
2026-05-07 11:43 53.67868 -8.00056 22148 ft 433 kts 102°
2026-05-07 11:43 53.67360 -7.95029 22601 ft 435 kts 102°
2026-05-07 11:43 53.66849 -7.89983 23041 ft 438 kts 103°
2026-05-07 11:44 53.66333 -7.84914 23468 ft 440 kts 103°
2026-05-07 11:44 53.65811 -7.79822 23811 ft 442 kts 103°
2026-05-07 11:44 53.65287 -7.74717 24216 ft 442 kts 103°
2026-05-07 11:44 53.64707 -7.69627 24592 ft 442 kts 107°
2026-05-07 11:45 53.63738 -7.64737 24935 ft 440 kts 116°
2026-05-07 11:45 53.62345 -7.60169 25265 ft 438 kts 123°
2026-05-07 11:45 53.60798 -7.55739 25579 ft 440 kts 123°
2026-05-07 11:45 53.59245 -7.51286 25912 ft 441 kts 123°
2026-05-07 11:46 53.57693 -7.46825 26217 ft 443 kts 123°
2026-05-07 11:46 53.56136 -7.42344 26522 ft 445 kts 123°
2026-05-07 11:46 53.54569 -7.37843 26812 ft 446 kts 123°
2026-05-07 11:46 53.52996 -7.33339 27087 ft 448 kts 123°
2026-05-07 11:47 53.51418 -7.28822 27352 ft 449 kts 123°
2026-05-07 11:47 53.49829 -7.24294 27588 ft 451 kts 123°
2026-05-07 11:47 53.48233 -7.19758 27853 ft 452 kts 123°
2026-05-07 11:47 53.46635 -7.15222 28148 ft 451 kts 123°
2026-05-07 11:48 53.45038 -7.10692 28518 ft 450 kts 123°
2026-05-07 11:48 53.43469 -7.06246 28868 ft 448 kts 123°
2026-05-07 11:48 53.41862 -7.01694 29212 ft 447 kts 123°
2026-05-07 11:48 53.40276 -6.97220 29570 ft 446 kts 123°
2026-05-07 11:49 53.38690 -6.92753 29930 ft 445 kts 123°
2026-05-07 11:49 53.37109 -6.88308 30246 ft 444 kts 123°
2026-05-07 11:49 53.35533 -6.83878 30546 ft 442 kts 123°
2026-05-07 11:49 53.33959 -6.79464 30857 ft 441 kts 123°
2026-05-07 11:50 53.32409 -6.75123 31153 ft 440 kts 123°
2026-05-07 11:50 53.30842 -6.70745 31471 ft 438 kts 123°
2026-05-07 11:50 53.29278 -6.66386 31778 ft 437 kts 123°
2026-05-07 11:50 53.27718 -6.62049 32136 ft 434 kts 123°
2026-05-07 11:51 53.26168 -6.57745 32484 ft 431 kts 123°
2026-05-07 11:51 53.24621 -6.53461 32826 ft 430 kts 123°
2026-05-07 11:51 53.23077 -6.49197 33139 ft 428 kts 123°
2026-05-07 11:51 53.21539 -6.44950 33445 ft 427 kts 123°
2026-05-07 11:52 53.20006 -6.40717 33758 ft 426 kts 123°
2026-05-07 11:52 53.18473 -6.36495 34055 ft 425 kts 123°
2026-05-07 11:52 53.16941 -6.32288 34301 ft 425 kts 123°
2026-05-07 11:52 53.15404 -6.28083 34519 ft 425 kts 123°
2026-05-07 11:53 53.13864 -6.23874 34713 ft 426 kts 123°
2026-05-07 11:53 53.12320 -6.19652 34903 ft 427 kts 123°
2026-05-07 11:53 53.10772 -6.15422 35086 ft 428 kts 123°
2026-05-07 11:53 53.09217 -6.11180 35265 ft 429 kts 123°
2026-05-07 11:54 53.07663 -6.06942 35444 ft 430 kts 123°
2026-05-07 11:54 53.06101 -6.02684 35633 ft 431 kts 123°
2026-05-07 11:54 53.04536 -5.98429 35792 ft 432 kts 123°
2026-05-07 11:54 53.02964 -5.94174 35959 ft 433 kts 123°
2026-05-07 11:55 53.01385 -5.89909 36120 ft 434 kts 123°
2026-05-07 11:55 52.99804 -5.85643 36287 ft 435 kts 123°
2026-05-07 11:55 52.98217 -5.81369 36447 ft 435 kts 123°
2026-05-07 11:55 52.96625 -5.77092 36585 ft 436 kts 123°
2026-05-07 11:56 52.95029 -5.72812 36742 ft 437 kts 123°
2026-05-07 11:56 52.93426 -5.68523 36909 ft 437 kts 123°
2026-05-07 11:56 52.91820 -5.64234 37001 ft 439 kts 123°
2026-05-07 11:57 52.88608 -5.55667 37011 ft 442 kts 123°
2026-05-07 11:57 52.85362 -5.47032 37007 ft 442 kts 123°
2026-05-07 11:58 52.82105 -5.38394 37021 ft 442 kts 123°
2026-05-07 11:58 52.78843 -5.29776 37022 ft 442 kts 123°
2026-05-07 11:59 52.75574 -5.21162 37022 ft 442 kts 123°
2026-05-07 11:59 52.72302 -5.12565 37027 ft 443 kts 123°
2026-05-07 12:00 52.69015 -5.03977 37028 ft 443 kts 124°
2026-05-07 12:00 52.65723 -4.95413 37022 ft 443 kts 123°
2026-05-07 12:01 52.62423 -4.86846 37023 ft 443 kts 123°
2026-05-07 12:01 52.59121 -4.78290 37023 ft 443 kts 124°
2026-05-07 12:02 52.55809 -4.69733 37025 ft 443 kts 124°
2026-05-07 12:02 52.52487 -4.61198 37027 ft 444 kts 124°
2026-05-07 12:03 52.49157 -4.52676 37031 ft 444 kts 124°
2026-05-07 12:03 52.45821 -4.44155 37028 ft 444 kts 124°
2026-05-07 12:04 52.42614 -4.35603 37027 ft 445 kts 117°
2026-05-07 12:04 52.39926 -4.26481 37030 ft 445 kts 117°
2026-05-07 12:05 52.37230 -4.17359 37031 ft 445 kts 117°
2026-05-07 12:05 52.34964 -4.09733 37033 ft 445 kts 117°
2026-05-07 12:06 52.32249 -4.00628 37037 ft 445 kts 117°
2026-05-07 12:06 52.29526 -3.91543 37033 ft 445 kts 118°
2026-05-07 12:07 52.26797 -3.82471 37041 ft 445 kts 118°
2026-05-07 12:07 52.24066 -3.73404 37041 ft 445 kts 117°
2026-05-07 12:08 52.21329 -3.64355 37037 ft 445 kts 118°
2026-05-07 12:08 52.18578 -3.55303 37033 ft 446 kts 118°
2026-05-07 12:09 52.15822 -3.46258 37032 ft 446 kts 118°
2026-05-07 12:09 52.13052 -3.37216 37034 ft 446 kts 118°
2026-05-07 12:10 52.10273 -3.28185 37035 ft 447 kts 118°
2026-05-07 12:10 52.07485 -3.19156 37040 ft 447 kts 118°
2026-05-07 12:11 52.04694 -3.10136 37043 ft 447 kts 118°
2026-05-07 12:11 52.01893 -3.01117 37057 ft 447 kts 118°
2026-05-07 12:12 51.99105 -2.92173 37049 ft 448 kts 118°
2026-05-07 12:12 51.96287 -2.83162 37051 ft 448 kts 118°
2026-05-07 12:13 51.93457 -2.74152 37038 ft 449 kts 118°
2026-05-07 12:13 51.90622 -2.65141 37044 ft 449 kts 118°
2026-05-07 12:14 51.87769 -2.56133 37049 ft 449 kts 118°
2026-05-07 12:14 51.84905 -2.47146 37056 ft 450 kts 119°
2026-05-07 12:15 51.82034 -2.38160 37050 ft 450 kts 118°
2026-05-07 12:15 51.79162 -2.29178 37049 ft 450 kts 118°
2026-05-07 12:16 51.76277 -2.20198 37045 ft 451 kts 118°
2026-05-07 12:16 51.73381 -2.11219 37047 ft 451 kts 118°
2026-05-07 12:17 51.70479 -2.02235 37051 ft 452 kts 118°
2026-05-07 12:17 51.67560 -1.93257 37051 ft 452 kts 119°
2026-05-07 12:18 51.64638 -1.84285 37054 ft 452 kts 119°
2026-05-07 12:18 51.61706 -1.75330 37058 ft 452 kts 119°
2026-05-07 12:19 51.58785 -1.66365 37058 ft 453 kts 116°
2026-05-07 12:19 51.56632 -1.56834 37060 ft 454 kts 110°
2026-05-07 12:20 51.54592 -1.47230 37049 ft 454 kts 110°
2026-05-07 12:20 51.52533 -1.37634 37044 ft 455 kts 110°
2026-05-07 12:21 51.50460 -1.28030 37047 ft 455 kts 110°
2026-05-07 12:21 51.48694 -1.18273 37049 ft 457 kts 102°
2026-05-07 12:22 51.47486 -1.08264 37051 ft 457 kts 102°
2026-05-07 12:22 51.46248 -0.98260 37053 ft 457 kts 102°
2026-05-07 12:23 51.44990 -0.88276 37059 ft 457 kts 103°
2026-05-07 12:23 51.43732 -0.78351 37067 ft 457 kts 103°
2026-05-07 12:24 51.42464 -0.68357 37079 ft 458 kts 103°
2026-05-07 12:24 51.41198 -0.58364 37084 ft 458 kts 103°
2026-05-07 12:25 51.39915 -0.48382 37085 ft 458 kts 103°
2026-05-07 12:25 51.38620 -0.38397 37086 ft 458 kts 103°
2026-05-07 12:26 51.37316 -0.28440 37080 ft 458 kts 103°
2026-05-07 12:26 51.36003 -0.18515 37079 ft 458 kts 103°
2026-05-07 12:27 51.34693 -0.08554 37079 ft 458 kts 103°
2026-05-07 12:27 51.33464 0.00687 37079 ft 458 kts 103°
2026-05-07 12:28 51.32258 0.10694 36983 ft 459 kts 100°
2026-05-07 12:28 51.31358 0.20810 36947 ft 460 kts 98°
2026-05-07 12:29 51.30579 0.30113 36916 ft 461 kts 99°
2026-05-07 12:29 51.29651 0.40239 36900 ft 461 kts 100°
2026-05-07 12:30 51.28652 0.50347 36900 ft 461 kts 100°
2026-05-07 12:30 51.27639 0.60456 36923 ft 461 kts 100°
2026-05-07 12:31 51.26637 0.70572 36958 ft 461 kts 100°
2026-05-07 12:31 51.25637 0.80698 37000 ft 462 kts 100°
2026-05-07 12:32 51.24622 0.90812 37046 ft 462 kts 100°
2026-05-07 12:32 51.23598 1.00929 37077 ft 462 kts 100°
2026-05-07 12:33 51.22052 1.16098 37085 ft 462 kts 100°
2026-05-07 12:33 51.21010 1.26210 37087 ft 462 kts 101°
2026-05-07 12:34 51.19950 1.36321 37093 ft 462 kts 101°
2026-05-07 12:34 51.18888 1.46354 37078 ft 462 kts 101°
2026-05-07 12:35 51.17814 1.56453 37082 ft 462 kts 101°
2026-05-07 12:35 51.16730 1.66560 37088 ft 462 kts 101°
2026-05-07 12:36 51.15640 1.76643 37085 ft 462 kts 101°
2026-05-07 12:36 51.14534 1.86738 37090 ft 462 kts 101°
2026-05-07 12:37 51.13425 1.96824 37080 ft 462 kts 101°
2026-05-07 12:37 51.12711 2.07004 37083 ft 463 kts 96°
2026-05-07 12:38 51.12176 2.17222 37083 ft 463 kts 96°
2026-05-07 12:38 51.11615 2.27432 37076 ft 463 kts 96°
2026-05-07 12:39 51.11039 2.37642 37073 ft 463 kts 96°
2026-05-07 12:39 51.10465 2.47859 37078 ft 463 kts 96°
2026-05-07 12:40 51.09885 2.58067 37069 ft 463 kts 96°
2026-05-07 12:40 51.08938 2.68183 37076 ft 462 kts 107°
2026-05-07 12:41 51.07162 2.77986 37077 ft 461 kts 107°
2026-05-07 12:41 51.05382 2.87785 37078 ft 462 kts 107°
2026-05-07 12:42 51.03587 2.97584 37079 ft 462 kts 107°
2026-05-07 12:42 51.01785 3.07374 37076 ft 462 kts 108°
2026-05-07 12:43 50.99978 3.17156 37078 ft 462 kts 108°
2026-05-07 12:43 50.98171 3.26941 37073 ft 462 kts 108°
2026-05-07 12:44 50.96351 3.36715 37069 ft 462 kts 108°
2026-05-07 12:44 50.94520 3.46493 37070 ft 462 kts 108°
2026-05-07 12:45 50.92689 3.56187 37069 ft 462 kts 108°
2026-05-07 12:45 50.90830 3.65939 37073 ft 462 kts 108°
2026-05-07 12:46 50.88958 3.75689 37077 ft 462 kts 108°
2026-05-07 12:46 50.87077 3.85421 37073 ft 463 kts 108°
2026-05-07 12:47 50.85189 3.95153 37076 ft 462 kts 108°
2026-05-07 12:47 50.83289 4.04873 37078 ft 463 kts 108°
2026-05-07 12:48 50.81378 4.14587 37078 ft 463 kts 109°
2026-05-07 12:48 50.79458 4.24299 37071 ft 463 kts 109°
2026-05-07 12:49 50.77535 4.34004 37074 ft 463 kts 109°
2026-05-07 12:49 50.75602 4.43701 37076 ft 463 kts 109°
2026-05-07 12:50 50.73657 4.53400 37076 ft 463 kts 109°
2026-05-07 12:50 50.72034 4.61454 37075 ft 463 kts 109°
2026-05-07 12:51 50.70135 4.71160 37065 ft 463 kts 108°
2026-05-07 12:51 50.68268 4.80896 37067 ft 464 kts 108°
2026-05-07 12:52 50.66071 4.92193 37067 ft 464 kts 108°
2026-05-07 12:52 50.64436 5.00307 37068 ft 464 kts 109°
2026-05-07 12:53 50.62433 5.09958 37073 ft 464 kts 109°
2026-05-07 12:53 50.60435 5.19538 37071 ft 464 kts 109°
2026-05-07 12:54 50.58431 5.29188 37071 ft 464 kts 109°
2026-05-07 12:54 50.56418 5.38839 37071 ft 464 kts 109°
2026-05-07 12:55 50.54399 5.48475 37070 ft 464 kts 109°
2026-05-07 12:55 50.52369 5.58106 37057 ft 464 kts 109°
2026-05-07 12:56 50.50378 5.67748 37054 ft 464 kts 108°
2026-05-07 12:56 50.48576 5.77492 37045 ft 465 kts 107°
2026-05-07 12:57 50.46817 5.87254 37043 ft 465 kts 107°
2026-05-07 12:57 50.45004 5.96996 37043 ft 465 kts 107°
2026-05-07 12:58 50.43151 6.06711 37045 ft 465 kts 107°
2026-05-07 12:58 50.41287 6.16426 36922 ft 466 kts 107°
2026-05-07 12:59 50.40357 6.21282 36655 ft 465 kts 107°
2026-05-07 12:59 50.39424 6.26132 36398 ft 465 kts 107°
2026-05-07 12:59 50.38489 6.30979 36129 ft 465 kts 107°
2026-05-07 12:59 50.37551 6.35836 35306 ft 468 kts 107°
2026-05-07 13:00 50.36654 6.40732 34462 ft 469 kts 102°
2026-05-07 13:00 50.36145 6.45768 33502 ft 469 kts 95°
2026-05-07 13:00 50.35850 6.50869 32439 ft 471 kts 95°
2026-05-07 13:00 50.35545 6.55979 31411 ft 471 kts 95°
2026-05-07 13:01 50.35226 6.61088 30340 ft 473 kts 95°
2026-05-07 13:01 50.34897 6.66228 29044 ft 475 kts 96°
2026-05-07 13:01 50.34562 6.71370 27883 ft 475 kts 96°
2026-05-07 13:01 50.34227 6.76515 26572 ft 477 kts 96°
2026-05-07 13:02 50.33871 6.81678 25291 ft 478 kts 99°
2026-05-07 13:02 50.33166 6.86761 24064 ft 478 kts 107°
2026-05-07 13:02 50.32005 6.91539 23186 ft 472 kts 116°
2026-05-07 13:02 50.30605 6.96147 22584 ft 467 kts 116°
2026-05-07 13:03 50.29234 7.00728 21925 ft 463 kts 116°
2026-05-07 13:03 50.27887 7.05279 21343 ft 460 kts 115°
2026-05-07 13:03 50.26555 7.09797 20737 ft 455 kts 115°
2026-05-07 13:03 50.25235 7.14257 20148 ft 450 kts 115°
2026-05-07 13:04 50.23918 7.18671 19568 ft 447 kts 115°
2026-05-07 13:04 50.22606 7.23049 18986 ft 443 kts 115°
2026-05-07 13:04 50.21301 7.27383 18409 ft 439 kts 115°
2026-05-07 13:04 50.20006 7.31670 17785 ft 435 kts 115°
2026-05-07 13:05 50.18782 7.35966 17225 ft 433 kts 113°
2026-05-07 13:05 50.17676 7.40333 16662 ft 432 kts 111°
2026-05-07 13:05 50.16653 7.44728 16097 ft 429 kts 109°
2026-05-07 13:05 50.15674 7.49101 15537 ft 426 kts 109°
2026-05-07 13:06 50.14700 7.53439 14978 ft 424 kts 109°
2026-05-07 13:06 50.13707 7.57749 14424 ft 421 kts 110°
2026-05-07 13:06 50.12700 7.62008 13878 ft 416 kts 110°
2026-05-07 13:06 50.11677 7.66211 13295 ft 414 kts 112°
2026-05-07 13:07 50.10354 7.70164 12837 ft 410 kts 123°
2026-05-07 13:07 50.08722 7.73807 12739 ft 410 kts 126°
2026-05-07 13:07 50.07089 7.77445 12641 ft 410 kts 125°
2026-05-07 13:07 50.05472 7.81082 12524 ft 408 kts 124°
2026-05-07 13:08 50.03863 7.84714 12371 ft 407 kts 124°
2026-05-07 13:08 50.02257 7.88341 12230 ft 407 kts 124°
2026-05-07 13:08 50.00650 7.91956 12086 ft 406 kts 124°
2026-05-07 13:08 49.99083 7.95604 11926 ft 405 kts 120°
2026-05-07 13:09 49.97713 7.99422 11789 ft 404 kts 119°
2026-05-07 13:09 49.96349 8.03227 11638 ft 403 kts 119°
2026-05-07 13:09 49.94981 8.07023 11492 ft 402 kts 119°
2026-05-07 13:09 49.93613 8.10808 11349 ft 402 kts 119°
2026-05-07 13:10 49.92246 8.14586 11196 ft 401 kts 119°
2026-05-07 13:10 49.90896 8.18316 11045 ft 387 kts 119°
2026-05-07 13:10 49.89650 8.21893 10897 ft 368 kts 114°
2026-05-07 13:10 49.88881 8.25576 10776 ft 351 kts 100°
2026-05-07 13:11 49.88669 8.29242 10652 ft 334 kts 88°
2026-05-07 13:11 49.88950 8.32735 10528 ft 320 kts 75°
2026-05-07 13:11 49.89512 8.35999 10418 ft 307 kts 73°
2026-05-07 13:11 49.90047 8.39147 10239 ft 298 kts 73°
2026-05-07 13:12 49.90569 8.42238 9911 ft 295 kts 73°
2026-05-07 13:12 49.91085 8.45307 9522 ft 293 kts 74°
2026-05-07 13:12 49.91598 8.48355 9142 ft 291 kts 74°
2026-05-07 13:12 49.92110 8.51384 8776 ft 289 kts 74°
2026-05-07 13:13 49.92617 8.54392 8423 ft 287 kts 74°
2026-05-07 13:13 49.93122 8.57378 8036 ft 285 kts 74°
2026-05-07 13:13 49.93623 8.60344 7657 ft 283 kts 74°
2026-05-07 13:13 49.94120 8.63284 7277 ft 281 kts 74°
2026-05-07 13:14 49.94614 8.66204 6903 ft 279 kts 74°
2026-05-07 13:14 49.95105 8.69102 6525 ft 277 kts 74°
2026-05-07 13:14 49.95586 8.71945 6348 ft 266 kts 74°
2026-05-07 13:14 49.96046 8.74665 6212 ft 255 kts 74°
2026-05-07 13:15 49.96483 8.77263 6047 ft 245 kts 74°
2026-05-07 13:15 49.96907 8.79806 5732 ft 242 kts 74°
2026-05-07 13:15 49.97326 8.82328 5400 ft 240 kts 74°
2026-05-07 13:15 49.97743 8.84836 5072 ft 239 kts 74°
2026-05-07 13:16 49.98157 8.87327 4736 ft 238 kts 74°
2026-05-07 13:16 49.98566 8.89779 4432 ft 237 kts 74°
2026-05-07 13:16 49.98987 8.92281 4134 ft 236 kts 74°
2026-05-07 13:16 49.99393 8.94702 3989 ft 234 kts 74°
2026-05-07 13:17 49.99802 8.97154 3991 ft 235 kts 74°
2026-05-07 13:17 50.00238 8.99608 3990 ft 235 kts 66°
2026-05-07 13:17 50.01191 9.01597 3989 ft 230 kts 33°
2026-05-07 13:17 50.02655 9.02440 3992 ft 225 kts
2026-05-07 13:18 50.04222 9.02131 3990 ft 225 kts 346°
2026-05-07 13:18 50.05741 9.01549 3993 ft 225 kts 344°
2026-05-07 13:18 50.07235 9.00940 3994 ft 225 kts 344°
2026-05-07 13:18 50.08721 9.00206 3991 ft 223 kts 330°
2026-05-07 13:19 50.09926 8.98715 3993 ft 222 kts 316°
2026-05-07 13:19 50.10990 8.96956 3995 ft 223 kts 306°
2026-05-07 13:19 50.11679 8.94793 3996 ft 225 kts 286°
2026-05-07 13:19 50.11826 8.92370 3997 ft 227 kts 265°
2026-05-07 13:20 50.11420 8.90009 3994 ft 223 kts 252°
2026-05-07 13:20 50.10902 8.87819 3991 ft 208 kts 252°
2026-05-07 13:20 50.10422 8.85785 3998 ft 192 kts 252°
2026-05-07 13:20 50.09973 8.83877 3797 ft 185 kts 253°
2026-05-07 13:21 50.09537 8.82023 3556 ft 180 kts 252°
2026-05-07 13:21 50.09110 8.80210 3327 ft 177 kts 252°
2026-05-07 13:21 50.08688 8.78419 3086 ft 176 kts 252°
2026-05-07 13:21 50.08270 8.76647 2848 ft 174 kts 251°
2026-05-07 13:22 50.07851 8.74875 2602 ft 174 kts 252°
2026-05-07 13:22 50.07435 8.73116 2386 ft 173 kts 252°
2026-05-07 13:22 50.07017 8.71347 2144 ft 180 kts 252°
2026-05-07 13:22 50.06575 8.69481 1892 ft 183 kts 251°
2026-05-07 13:23 50.06154 8.67709 1647 ft 166 kts 251°
2026-05-07 13:23 50.05769 8.66087 1428 ft 154 kts 251°
2026-05-07 13:23 50.05411 8.64579 1216 ft 145 kts 251°
2026-05-07 13:23 50.05067 8.63128 1033 ft 140 kts 250°
2026-05-07 13:24 50.04727 8.61716 821 ft 139 kts 250°
2026-05-07 13:24 50.04404 8.60307 640 ft 138 kts 250°
2026-05-07 13:24 50.04067 8.58920 463 ft 136 kts 248°
2026-05-07 13:24 50.03751 8.57593 359 ft 121 kts 249°
2026-05-07 13:25 50.03516 8.56608 355 ft 72 kts 250°
2026-05-07 13:25 50.03441 8.56266 351 ft 23 kts 260°
2026-05-07 13:25 50.03442 8.56013 347 ft 26 kts 275°
2026-05-07 13:25 50.03461 8.55830 345 ft 16 kts 279°
2026-05-07 13:26 50.03504 8.55709 345 ft 11 kts 341°
2026-05-07 13:26 50.03556 8.55749 349 ft 9 kts 53°
2026-05-07 13:26 50.03596 8.55914 353 ft 22 kts 73°
2026-05-07 13:26 50.03653 8.56158 356 ft 27 kts 68°
2026-05-07 13:27 50.03724 8.56440 358 ft 23 kts 70°
2026-05-07 13:27 50.03782 8.56685 360 ft 25 kts 70°
2026-05-07 13:27 50.03845 8.56950 354 ft 27 kts 69°
2026-05-07 13:27 50.03910 8.57221 363 ft 27 kts 69°
2026-05-07 13:28 50.03975 8.57492 367 ft 27 kts 70°
2026-05-07 13:28 50.04041 8.57770 370 ft 28 kts 70°
2026-05-07 13:28 50.04106 8.58041 370 ft 24 kts 69°
2026-05-07 13:28 50.04167 8.58295 369 ft 26 kts 70°
2026-05-07 13:29 50.04228 8.58552 371 ft 25 kts 70°
2026-05-07 13:29 50.04287 8.58792 372 ft 23 kts 69°
2026-05-07 13:29 50.04340 8.59017 377 ft 20 kts 70°
2026-05-07 13:29 50.04386 8.59203 376 ft 17 kts 69°
2026-05-07 13:30 50.04422 8.59352 376 ft 11 kts 69°
2026-05-07 13:30 50.04452 8.59453 375 ft 9 kts 48°
2026-05-07 13:30 50.04489 8.59473 375 ft 8 kts
2026-05-07 13:30 50.04545 8.59469 374 ft 6 kts 357°
2026-05-07 13:31 50.04549 8.59469 374 ft 0 kts 357°
2026-05-07 13:31 50.04550 8.59469 374 ft 0 kts 357°
2026-05-07 13:31 50.04588 8.59466 373 ft 11 kts 357°
2026-05-07 13:31 50.04676 8.59450 372 ft 12 kts 347°
2026-05-07 13:32 50.04745 8.59417 372 ft 9 kts 341°
2026-05-07 13:32 50.04807 8.59382 371 ft 12 kts 340°
2026-05-07 13:32 50.04879 8.59363 368 ft 14 kts
2026-05-07 13:32 50.04949 8.59367 366 ft 7 kts 342°
2026-05-07 13:33 50.04985 8.59345 369 ft 8 kts 339°
2026-05-07 13:33 50.05041 8.59311 362 ft 7 kts 337°
2026-05-07 13:33 50.05076 8.59196 360 ft 16 kts 256°
2026-05-07 13:33 50.05039 8.59040 363 ft 12 kts 249°
2026-05-07 13:34 50.05017 8.58950 366 ft 9 kts 249°
2026-05-07 13:34 50.04981 8.58842 362 ft 2 kts 218°
2026-05-07 13:34 50.04950 8.58843 361 ft 4 kts 163°
2026-05-07 13:35 50.04936 8.58851 363 ft 2 kts 160°
2026-05-07 13:35 50.04923 8.58859 363 ft 1 kts 160°
2026-05-07 13:35 50.04916 8.58863 367 ft 0 kts 160°
2026-05-07 13:35 50.04911 8.58866 365 ft 0 kts 160°
2026-05-07 13:36 50.04910 8.58866 365 ft 0 kts 160°